Time,TemperatureF,DewpointF,PressureIn,WindDirection,WindDirectionDegrees,WindSpeedMPH,WindSpeedGustMPH,Humidity,HourlyPrecipIn,Conditions,Clouds,dailyrainin,SolarRadiationWatts/m^2,SoftwareType,DateUTC
2013-02-03 00:00:00,44.2,40.9,30.10,NE,39,0.0,0.0,88,0.00,RA,SKC,0.00,0.0,WeatherDisplay:10.37,2013-02-03 05:00:00,
2013-02-03 00:01:00,44.2,40.9,30.10,NE,39,0.0,0.0,88,0.00,RA,SKC,0.00,0.0,WeatherDisplay:10.37,2013-02-03 05:01:00,
2013-02-03 00:06:00,44.3,41.0,30.10,NE,39,0.0,0.0,88,0.00,RA,SKC,0.00,0.0,WeatherDisplay:10.37,2013-02-03 05:06:00,
2013-02-03 00:11:00,44.5,41.2,30.09,NE,39,0.0,0.0,88,0.00,BKN,SKC,0.00,0.0,WeatherDisplay:10.37,2013-02-03 05:11:00,
2013-02-03 00:16:00,44.5,40.9,30.09,NE,39,0.0,0.0,87,0.00,BKN,SKC,0.00,0.0,WeatherDisplay:10.37,2013-02-03 05:16:00,
2013-02-03 00:21:00,44.6,41.0,30.10,NE,39,0.0,0.0,87,0.00,BKN,SKC,0.00,0.0,WeatherDisplay:10.37,2013-02-03 05:21:00,
2013-02-03 00:26:00,44.9,41.0,30.09,NE,39,1.2,1.2,86,0.00,BKN,SKC,0.00,0.0,WeatherDisplay:10.37,2013-02-03 05:26:00,
2013-02-03 00:31:00,45.1,40.9,30.09,NE,39,0.0,0.0,85,0.00,BKN,SKC,0.00,0.0,WeatherDisplay:10.37,2013-02-03 05:31:00,
2013-02-03 00:36:00,45.7,41.1,30.08,NE,39,0.0,0.0,84,0.00,BKN,SKC,0.00,0.0,WeatherDisplay:10.37,2013-02-03 05:36:00,
2013-02-03 00:41:00,46.0,41.1,30.08,NE,39,0.0,0.0,83,0.00,BKN,SKC,0.00,0.0,WeatherDisplay:10.37,2013-02-03 05:41:00,
2013-02-03 00:46:00,46.1,40.6,30.07,NE,44,1.0,0.0,81,0.00,BKN,SKC,0.00,0.0,WeatherDisplay:10.37,2013-02-03 05:46:00,
2013-02-03 00:51:00,46.3,40.5,30.08,NE,42,1.2,0.0,80,0.00,BKN,SKC,0.00,0.0,WeatherDisplay:10.37,2013-02-03 05:51:00,
2013-02-03 00:56:00,46.4,40.6,30.08,NE,42,0.0,0.0,80,0.00,BKN,SKC,0.00,0.0,WeatherDisplay:10.37,2013-02-03 05:56:00,
2013-02-03 01:01:00,46.6,40.1,30.08,WNW,286,0.0,0.0,78,0.00,BKN,SKC,0.00,0.0,WeatherDisplay:10.37,2013-02-03 06:01:00,
2013-02-03 01:06:00,46.9,40.1,30.07,West,263,3.5,3.5,77,0.00,BKN,SKC,0.00,0.0,WeatherDisplay:10.37,2013-02-03 06:06:00,
2013-02-03 01:11:00,47.1,39.6,30.07,West,259,3.5,3.5,75,0.00,BKN,SKC,0.00,0.0,WeatherDisplay:10.37,2013-02-03 06:11:00,
2013-02-03 01:16:00,47.0,39.5,30.07,West,259,0.0,0.0,75,0.00,BKN,SKC,0.00,0.0,WeatherDisplay:10.37,2013-02-03 06:16:00,
2013-02-03 01:21:00,46.7,39.5,30.07,West,259,0.0,0.0,76,0.00,BKN,SKC,0.00,0.0,WeatherDisplay:10.37,2013-02-03 06:21:00,
2013-02-03 01:26:00,46.4,38.9,30.06,West,259,0.0,0.0,75,0.00,BKN,SKC,0.00,0.0,WeatherDisplay:10.37,2013-02-03 06:26:00,
2013-02-03 01:31:00,46.4,38.9,30.07,West,259,0.0,0.0,75,0.00,BKN,SKC,0.00,0.0,WeatherDisplay:10.37,2013-02-03 06:31:00,
2013-02-03 01:36:00,46.6,38.8,30.07,West,259,1.2,1.2,74,0.00,BKN,SKC,0.00,0.0,WeatherDisplay:10.37,2013-02-03 06:36:00,
2013-02-03 01:41:00,46.4,38.6,30.06,West,259,0.0,0.0,74,0.00,BKN,SKC,0.00,0.0,WeatherDisplay:10.37,2013-02-03 06:41:00,
2013-02-03 01:46:00,46.1,38.3,30.06,West,259,0.0,0.0,74,0.00,BKN,SKC,0.00,0.0,WeatherDisplay:10.37,2013-02-03 06:46:00,
2013-02-03 01:51:00,45.6,38.1,30.06,West,259,2.0,2.0,75,0.00,BKN,SKC,0.00,0.0,WeatherDisplay:10.37,2013-02-03 06:51:00,
2013-02-03 01:56:00,45.2,37.7,30.06,West,259,0.0,0.0,75,0.00,BKN,SKC,0.00,0.0,WeatherDisplay:10.37,2013-02-03 06:56:00,
2013-02-03 02:01:00,44.8,37.7,30.05,West,259,0.0,0.0,76,0.00,BKN,SKC,0.00,0.0,WeatherDisplay:10.37,2013-02-03 07:01:00,
2013-02-03 02:06:00,44.3,37.2,30.05,West,259,0.0,0.0,76,0.00,BKN,SKC,0.00,0.0,WeatherDisplay:10.37,2013-02-03 07:06:00,
2013-02-03 02:11:00,43.8,37.1,30.06,West,259,0.0,0.0,77,0.00,BKN,SKC,0.00,0.0,WeatherDisplay:10.37,2013-02-03 07:11:00,
2013-02-03 02:16:00,43.6,36.9,30.05,West,259,0.0,0.0,77,0.00,BKN,SKC,0.00,0.0,WeatherDisplay:10.37,2013-02-03 07:16:00,
2013-02-03 02:21:00,43.2,36.8,30.05,West,259,0.0,0.0,78,0.00,BKN,SKC,0.00,0.0,WeatherDisplay:10.37,2013-02-03 07:21:00,
2013-02-03 02:26:00,42.9,36.8,30.05,West,259,0.0,0.0,79,0.00,BKN,SKC,0.00,0.0,WeatherDisplay:10.37,2013-02-03 07:26:00,
2013-02-03 02:31:00,42.5,36.8,30.05,West,259,0.0,0.0,80,0.00,BKN,SKC,0.00,0.0,WeatherDisplay:10.37,2013-02-03 07:31:00,
2013-02-03 02:36:00,42.2,36.5,30.05,West,259,0.0,0.1,80,0.00,BKN,SKC,0.00,0.0,WeatherDisplay:10.37,2013-02-03 07:36:00,
2013-02-03 02:41:00,41.8,36.4,30.04,West,259,0.0,0.0,81,0.00,BKN,SKC,0.00,0.0,WeatherDisplay:10.37,2013-02-03 07:41:00,
2013-02-03 02:46:00,41.4,36.0,30.05,West,259,0.0,0.0,81,0.00,BKN,SKC,0.00,0.0,WeatherDisplay:10.37,2013-02-03 07:46:00,
2013-02-03 02:51:00,41.3,36.2,30.04,West,259,0.0,0.0,82,0.00,BKN,SKC,0.00,0.0,WeatherDisplay:10.37,2013-02-03 07:51:00,
2013-02-03 02:56:00,41.3,36.2,30.05,West,259,0.0,0.0,82,0.00,BKN,SKC,0.00,0.0,WeatherDisplay:10.37,2013-02-03 07:56:00,
2013-02-03 03:01:00,41.2,35.8,30.04,West,259,0.0,0.0,81,0.00,FEW,SKC,0.00,0.0,WeatherDisplay:10.37,2013-02-03 08:01:00,
2013-02-03 03:06:00,41.3,35.6,30.04,West,259,0.0,0.0,80,0.00,FEW,SKC,0.00,0.0,WeatherDisplay:10.37,2013-02-03 08:06:00,
2013-02-03 03:11:00,41.4,35.7,30.04,West,259,0.0,0.0,80,0.00,FEW,SKC,0.00,0.0,WeatherDisplay:10.37,2013-02-03 08:11:00,
2013-02-03 03:16:00,41.1,35.4,30.04,West,259,0.0,0.0,80,0.00,FEW,SKC,0.00,0.0,WeatherDisplay:10.37,2013-02-03 08:16:00,
2013-02-03 03:21:00,40.8,35.4,30.03,West,259,0.0,0.0,81,0.00,FEW,SKC,0.00,0.0,WeatherDisplay:10.37,2013-02-03 08:21:00,
2013-02-03 03:26:00,40.5,35.1,30.03,West,259,0.0,0.0,81,0.00,FEW,SKC,0.00,0.0,WeatherDisplay:10.37,2013-02-03 08:26:00,
2013-02-03 03:31:00,40.5,35.1,30.03,West,259,0.0,0.0,81,0.00,FEW,SKC,0.00,0.0,WeatherDisplay:10.37,2013-02-03 08:31:00,
2013-02-03 03:36:00,40.6,35.5,30.03,West,259,0.0,0.0,82,0.00,FEW,SKC,0.00,0.0,WeatherDisplay:10.37,2013-02-03 08:36:00,
2013-02-03 03:41:00,40.5,35.1,30.02,West,259,0.0,0.0,81,0.00,FEW,SKC,0.00,0.0,WeatherDisplay:10.37,2013-02-03 08:41:00,
2013-02-03 03:46:00,40.5,35.1,30.02,West,259,0.0,0.0,81,0.00,FEW,SKC,0.00,0.0,WeatherDisplay:10.37,2013-02-03 08:46:00,
2013-02-03 03:51:00,40.4,34.7,30.02,West,259,0.0,0.0,80,0.00,FEW,SKC,0.00,0.0,WeatherDisplay:10.37,2013-02-03 08:51:00,
2013-02-03 03:56:00,40.3,34.6,30.02,West,259,0.0,0.0,80,0.00,FEW,SKC,0.00,0.0,WeatherDisplay:10.37,2013-02-03 08:56:00,
2013-02-03 04:01:00,40.1,34.7,30.03,West,259,0.0,0.0,81,0.00,FEW,SKC,0.00,0.0,WeatherDisplay:10.37,2013-02-03 09:01:00,
2013-02-03 04:06:00,39.9,34.5,30.03,West,259,0.0,0.0,81,0.00,FEW,SKC,0.00,0.0,WeatherDisplay:10.37,2013-02-03 09:06:00,
2013-02-03 04:11:00,40.1,34.7,30.02,West,259,0.0,0.0,81,0.00,FEW,SKC,0.00,0.0,WeatherDisplay:10.37,2013-02-03 09:11:00,
2013-02-03 04:16:00,40.2,34.5,30.02,West,259,0.0,0.0,80,0.00,FEW,SKC,0.00,0.0,WeatherDisplay:10.37,2013-02-03 09:16:00,
2013-02-03 04:21:00,40.1,34.4,30.02,West,259,0.0,0.0,80,0.00,FEW,SKC,0.00,0.0,WeatherDisplay:10.37,2013-02-03 09:21:00,
2013-02-03 04:26:00,40.4,34.4,30.02,West,259,0.0,0.0,79,0.00,FEW,SKC,0.00,0.0,WeatherDisplay:10.37,2013-02-03 09:26:00,
2013-02-03 04:31:00,40.2,34.2,30.02,West,259,0.0,0.0,79,0.00,FEW,SKC,0.00,0.0,WeatherDisplay:10.37,2013-02-03 09:31:00,
2013-02-03 04:36:00,40.1,33.8,30.02,West,259,0.0,0.0,78,0.00,FEW,SKC,0.00,0.0,WeatherDisplay:10.37,2013-02-03 09:36:00,
2013-02-03 04:41:00,40.2,33.9,30.02,West,259,0.0,0.1,78,0.00,FEW,SKC,0.00,0.0,WeatherDisplay:10.37,2013-02-03 09:41:00,
2013-02-03 04:46:00,40.0,33.7,30.02,West,259,0.0,0.0,78,0.00,FEW,SKC,0.00,0.0,WeatherDisplay:10.37,2013-02-03 09:46:00,
2013-02-03 04:51:00,40.0,33.7,30.02,West,259,0.0,0.0,78,0.00,FEW,SKC,0.00,0.0,WeatherDisplay:10.37,2013-02-03 09:51:00,
2013-02-03 04:56:00,40.0,33.4,30.02,West,259,1.2,0.0,77,0.00,FEW,SKC,0.00,0.0,WeatherDisplay:10.37,2013-02-03 09:56:00,
2013-02-03 05:01:00,40.1,33.5,30.03,West,259,1.2,0.0,77,0.00,CLR,SKC,0.00,0.0,WeatherDisplay:10.37,2013-02-03 10:01:00,
2013-02-03 05:07:00,40.2,33.6,30.03,West,259,0.0,0.0,77,0.00,CLR,SKC,0.00,0.0,WeatherDisplay:10.37,2013-02-03 10:07:00,
2013-02-03 05:12:00,40.3,33.3,30.03,West,259,1.2,0.0,76,0.00,CLR,SKC,0.00,0.0,WeatherDisplay:10.37,2013-02-03 10:12:00,
2013-02-03 05:17:00,40.4,33.1,30.04,West,259,2.3,2.3,75,0.00,CLR,SKC,0.00,0.0,WeatherDisplay:10.37,2013-02-03 10:17:00,
2013-02-03 05:22:00,40.6,32.6,30.04,West,259,2.3,2.3,73,0.00,CLR,SKC,0.00,0.0,WeatherDisplay:10.37,2013-02-03 10:22:00,
2013-02-03 05:27:00,40.5,32.5,30.03,West,259,1.2,0.0,73,0.00,CLR,SKC,0.00,0.0,WeatherDisplay:10.37,2013-02-03 10:27:00,
2013-02-03 05:32:00,40.5,32.9,30.04,West,259,1.2,1.2,74,0.00,CLR,SKC,0.00,0.0,WeatherDisplay:10.37,2013-02-03 10:32:00,
2013-02-03 05:37:00,40.6,33.0,30.04,West,280,0.0,0.0,74,0.00,CLR,SKC,0.00,0.0,WeatherDisplay:10.37,2013-02-03 10:37:00,
2013-02-03 05:42:00,40.6,33.0,30.04,West,280,2.3,2.3,74,0.00,CLR,SKC,0.00,0.0,WeatherDisplay:10.37,2013-02-03 10:42:00,
2013-02-03 05:47:00,40.9,33.2,30.04,WSW,254,5.8,5.8,74,0.00,CLR,SKC,0.00,0.0,WeatherDisplay:10.37,2013-02-03 10:47:00,
2013-02-03 05:52:00,41.2,33.2,30.04,West,263,5.8,5.8,73,0.00,CLR,SKC,0.00,0.0,WeatherDisplay:10.37,2013-02-03 10:52:00,
2013-02-03 05:57:00,41.6,33.6,30.04,West,262,4.6,4.6,73,0.00,CLR,SKC,0.00,0.0,WeatherDisplay:10.37,2013-02-03 10:57:00,
2013-02-03 06:02:00,41.8,33.4,30.04,West,265,3.5,3.5,72,0.00,BKN,SKC,0.00,0.0,WeatherDisplay:10.37,2013-02-03 11:02:00,
2013-02-03 06:07:00,41.9,33.9,30.04,West,269,2.3,2.3,73,0.00,BKN,SKC,0.00,0.0,WeatherDisplay:10.37,2013-02-03 11:07:00,
2013-02-03 06:12:00,41.9,33.9,30.04,West,263,6.9,6.9,73,0.00,BKN,SKC,0.00,0.0,WeatherDisplay:10.37,2013-02-03 11:12:00,
2013-02-03 06:17:00,41.9,34.2,30.04,WNW,285,3.5,3.5,74,0.00,BKN,SKC,0.00,0.0,WeatherDisplay:10.37,2013-02-03 11:17:00,
2013-02-03 06:22:00,42.0,34.3,30.05,West,278,3.5,3.5,74,0.00,BKN,SKC,0.00,0.0,WeatherDisplay:10.37,2013-02-03 11:22:00,
2013-02-03 06:27:00,42.0,34.6,30.05,West,264,5.8,5.8,75,0.00,BKN,SKC,0.00,0.0,WeatherDisplay:10.37,2013-02-03 11:27:00,
2013-02-03 06:32:00,41.9,34.6,30.05,West,262,5.0,5.0,75,0.00,BKN,SKC,0.00,0.0,WeatherDisplay:10.37,2013-02-03 11:32:00,
2013-02-03 06:37:00,41.8,34.8,30.05,West,267,3.5,3.5,76,0.00,BKN,SKC,0.00,0.0,WeatherDisplay:10.37,2013-02-03 11:37:00,
2013-02-03 06:42:00,41.9,35.2,30.05,West,261,10.4,10.4,77,0.00,BKN,SKC,0.00,0.0,WeatherDisplay:10.37,2013-02-03 11:42:00,
2013-02-03 06:47:00,42.0,35.6,30.05,West,261,8.1,8.1,78,0.00,BKN,SKC,0.00,0.0,WeatherDisplay:10.37,2013-02-03 11:47:00,
2013-02-03 06:52:00,42.2,35.8,30.05,West,269,9.0,9.0,78,0.00,BKN,SKC,0.00,0.0,WeatherDisplay:10.37,2013-02-03 11:52:00,
2013-02-03 06:57:00,42.4,36.0,30.05,WNW,299,9.2,9.2,78,0.00,BKN,SKC,0.00,0.0,WeatherDisplay:10.37,2013-02-03 11:57:00,
2013-02-03 07:02:00,42.5,36.1,30.05,WSW,257,7.0,7.0,78,0.00,CLR,SKC,0.00,0.0,WeatherDisplay:10.37,2013-02-03 12:02:00,
2013-02-03 07:07:00,42.6,36.2,30.05,West,263,8.1,8.1,78,0.00,CLR,SKC,0.00,0.0,WeatherDisplay:10.37,2013-02-03 12:07:00,
2013-02-03 07:12:00,42.8,36.4,30.05,WSW,240,4.6,4.6,78,0.00,CLR,SKC,0.00,0.0,WeatherDisplay:10.37,2013-02-03 12:12:00,
2013-02-03 07:17:00,42.8,36.1,30.05,WNW,295,4.6,4.6,77,0.00,CLR,SKC,0.00,5.0,WeatherDisplay:10.37,2013-02-03 12:17:00,
2013-02-03 07:22:00,42.7,36.3,30.05,West,264,3.5,3.5,78,0.00,CLR,SKC,0.00,7.0,WeatherDisplay:10.37,2013-02-03 12:22:00,
2013-02-03 07:27:00,42.7,36.3,30.06,WNW,300,9.2,9.2,78,0.00,CLR,SKC,0.00,11.0,WeatherDisplay:10.37,2013-02-03 12:27:00,
2013-02-03 07:32:00,42.8,36.1,30.06,WSW,246,6.9,6.9,77,0.00,CLR,SKC,0.00,12.0,WeatherDisplay:10.37,2013-02-03 12:32:00,
2013-02-03 07:37:00,42.9,35.9,30.06,West,261,10.4,10.4,76,0.01,RA,SKC,0.01,14.0,WeatherDisplay:10.37,2013-02-03 12:37:00,
2013-02-03 07:42:00,42.9,35.9,30.06,West,281,4.0,4.0,76,0.01,RA,SKC,0.01,16.0,WeatherDisplay:10.37,2013-02-03 12:42:00,
2013-02-03 07:47:00,42.9,35.9,30.07,WSW,258,11.5,11.5,76,0.01,CLR,SKC,0.01,19.0,WeatherDisplay:10.37,2013-02-03 12:47:00,
2013-02-03 07:52:00,43.0,35.6,30.07,West,266,11.5,11.5,75,0.01,CLR,SKC,0.01,21.0,WeatherDisplay:10.37,2013-02-03 12:52:00,
2013-02-03 07:57:00,43.1,35.7,30.07,West,268,9.0,9.0,75,0.01,CLR,SKC,0.01,21.0,WeatherDisplay:10.37,2013-02-03 12:57:00,
2013-02-03 08:02:00,43.2,35.8,30.07,WSW,254,4.6,4.6,75,0.01,CLR,SKC,0.01,25.0,WeatherDisplay:10.37,2013-02-03 13:02:00,
2013-02-03 08:07:00,43.3,35.9,30.07,West,273,12.7,12.7,75,0.01,CLR,SKC,0.01,25.0,WeatherDisplay:10.37,2013-02-03 13:07:00,
2013-02-03 08:12:00,43.5,35.8,30.07,WNW,286,12.7,12.7,74,0.01,CLR,SKC,0.01,26.0,WeatherDisplay:10.37,2013-02-03 13:12:00,
2013-02-03 08:17:00,43.7,36.0,30.07,SW,233,6.9,6.9,74,0.01,CLR,SKC,0.01,26.0,WeatherDisplay:10.37,2013-02-03 13:17:00,
2013-02-03 08:22:00,43.9,35.8,30.07,WSW,245,8.1,8.1,73,0.01,CLR,SKC,0.01,28.0,WeatherDisplay:10.37,2013-02-03 13:22:00,
2013-02-03 08:27:00,44.1,36.0,30.07,WSW,250,13.8,13.8,73,0.01,CLR,SKC,0.01,28.0,WeatherDisplay:10.37,2013-02-03 13:27:00,
2013-02-03 08:32:00,44.3,36.2,30.08,West,281,11.5,11.5,73,0.01,CLR,SKC,0.01,30.0,WeatherDisplay:10.37,2013-02-03 13:32:00,
2013-02-03 08:37:00,44.5,36.0,30.08,WNW,284,13.8,13.8,72,0.00,CLR,SKC,0.01,30.0,WeatherDisplay:10.37,2013-02-03 13:37:00,
2013-02-03 08:42:00,44.6,36.1,30.08,West,266,11.5,11.5,72,0.00,CLR,SKC,0.01,32.0,WeatherDisplay:10.37,2013-02-03 13:42:00,
2013-02-03 08:47:00,44.8,36.0,30.08,WNW,298,12.7,12.7,71,0.00,CLR,SKC,0.01,37.0,WeatherDisplay:10.37,2013-02-03 13:47:00,
2013-02-03 08:52:00,45.0,35.8,30.08,West,275,19.6,19.6,70,0.00,CLR,SKC,0.01,33.0,WeatherDisplay:10.37,2013-02-03 13:52:00,
2013-02-03 08:57:00,45.3,35.7,30.08,West,262,5.0,5.0,69,0.00,CLR,SKC,0.01,33.0,WeatherDisplay:10.37,2013-02-03 13:57:00,
2013-02-03 09:02:00,45.5,35.9,30.08,West,277,9.2,9.2,69,0.00,CLR,SKC,0.01,33.0,WeatherDisplay:10.37,2013-02-03 14:02:00,
2013-02-03 09:07:00,45.7,36.1,30.08,SW,225,11.5,11.5,69,0.00,CLR,SKC,0.01,35.0,WeatherDisplay:10.37,2013-02-03 14:07:00,
2013-02-03 09:12:00,46.1,36.1,30.08,West,263,3.5,3.5,68,0.00,CLR,SKC,0.01,44.0,WeatherDisplay:10.37,2013-02-03 14:12:00,
2013-02-03 09:17:00,46.5,36.1,30.08,West,278,11.0,11.0,67,0.00,CLR,SKC,0.01,54.0,WeatherDisplay:10.37,2013-02-03 14:17:00,
2013-02-03 09:22:00,46.7,35.6,30.08,West,263,10.4,10.4,65,0.00,CLR,SKC,0.01,40.0,WeatherDisplay:10.37,2013-02-03 14:22:00,
2013-02-03 09:27:00,47.2,36.0,30.08,WNW,302,11.5,11.5,65,0.00,CLR,SKC,0.01,53.0,WeatherDisplay:10.37,2013-02-03 14:27:00,
2013-02-03 09:32:00,47.4,35.4,30.08,WSW,251,14.0,14.0,63,0.00,CLR,SKC,0.01,47.0,WeatherDisplay:10.37,2013-02-03 14:32:00,
2013-02-03 09:37:00,47.7,35.7,30.08,WNW,292,7.0,7.0,63,0.00,CLR,SKC,0.01,127.0,WeatherDisplay:10.37,2013-02-03 14:37:00,
2013-02-03 09:42:00,48.2,35.8,30.08,WNW,302,4.6,4.6,62,0.00,CLR,SKC,0.01,162.0,WeatherDisplay:10.37,2013-02-03 14:42:00,
2013-02-03 09:47:00,48.5,35.2,30.08,West,278,11.5,11.5,60,0.00,CLR,SKC,0.01,288.0,WeatherDisplay:10.37,2013-02-03 14:47:00,
2013-02-03 09:52:00,48.7,35.4,30.07,West,273,6.9,6.9,60,0.00,CLR,SKC,0.01,258.0,WeatherDisplay:10.37,2013-02-03 14:52:00,
2013-02-03 09:57:00,49.2,35.0,30.07,West,265,9.2,9.2,58,0.00,CLR,SKC,0.01,462.0,WeatherDisplay:10.37,2013-02-03 14:57:00,
2013-02-03 10:02:00,49.2,35.0,30.08,WSW,252,9.2,9.2,58,0.00,CLR,SKC,0.01,448.0,WeatherDisplay:10.37,2013-02-03 15:02:00,
2013-02-03 10:07:00,49.5,34.4,30.08,West,261,11.5,11.5,56,0.00,CLR,SKC,0.01,348.0,WeatherDisplay:10.37,2013-02-03 15:07:00,
2013-02-03 10:13:00,49.9,34.8,30.08,West,275,11.5,11.5,56,0.00,CLR,SKC,0.01,253.0,WeatherDisplay:10.37,2013-02-03 15:13:00,
2013-02-03 10:18:00,50.1,34.5,30.08,WSW,250,11.5,11.5,55,0.00,CLR,SKC,0.01,432.0,WeatherDisplay:10.37,2013-02-03 15:18:00,
2013-02-03 10:23:00,50.4,34.4,30.08,NNW,332,8.1,8.1,54,0.00,CLR,SKC,0.01,373.0,WeatherDisplay:10.37,2013-02-03 15:23:00,
2013-02-03 10:28:00,50.9,34.8,30.08,WSW,242,10.4,10.4,54,0.00,CLR,SKC,0.01,322.0,WeatherDisplay:10.37,2013-02-03 15:28:00,
2013-02-03 10:33:00,50.9,34.4,30.08,West,277,17.3,17.3,53,0.00,CLR,SKC,0.01,255.0,WeatherDisplay:10.37,2013-02-03 15:33:00,
2013-02-03 10:38:00,51.3,34.7,30.08,West,261,12.7,12.7,53,0.00,CLR,SKC,0.01,357.0,WeatherDisplay:10.37,2013-02-03 15:38:00,
2013-02-03 10:43:00,51.3,34.3,30.07,WSW,256,9.2,9.2,52,0.00,CLR,SKC,0.01,178.0,WeatherDisplay:10.37,2013-02-03 15:43:00,
2013-02-03 10:48:00,52.1,34.0,30.06,SW,222,6.9,6.9,50,0.00,CLR,SKC,0.01,348.0,WeatherDisplay:10.37,2013-02-03 15:48:00,
2013-02-03 10:53:00,52.6,35.0,30.07,West,262,3.5,3.5,51,0.00,CLR,SKC,0.01,114.0,WeatherDisplay:10.37,2013-02-03 15:53:00,
2013-02-03 10:58:00,52.8,34.2,30.07,WNW,287,11.5,11.5,49,0.00,CLR,SKC,0.01,74.0,WeatherDisplay:10.37,2013-02-03 15:58:00,
2013-02-03 11:03:00,52.4,33.8,30.07,WSW,242,5.8,5.8,49,0.00,CLR,SKC,0.01,116.0,WeatherDisplay:10.37,2013-02-03 16:03:00,
2013-02-03 11:08:00,52.9,34.2,30.07,WSW,253,12.7,12.7,49,0.00,CLR,SKC,0.01,288.0,WeatherDisplay:10.37,2013-02-03 16:08:00,
2013-02-03 11:13:00,53.0,33.8,30.07,West,277,9.2,9.2,48,0.00,CLR,SKC,0.01,448.0,WeatherDisplay:10.37,2013-02-03 16:13:00,
2013-02-03 11:18:00,53.1,33.4,30.07,West,271,12.7,12.7,47,0.00,CLR,SKC,0.01,302.0,WeatherDisplay:10.37,2013-02-03 16:18:00,
2013-02-03 11:23:00,53.4,33.7,30.07,NW,318,10.4,10.4,47,0.00,CLR,SKC,0.01,172.0,WeatherDisplay:10.37,2013-02-03 16:23:00,
2013-02-03 11:28:00,54.3,34.5,30.06,WNW,302,9.2,9.2,47,0.00,CLR,SKC,0.01,431.0,WeatherDisplay:10.37,2013-02-03 16:28:00,
2013-02-03 11:33:00,54.2,33.9,30.06,West,279,13.8,13.8,46,0.00,CLR,SKC,0.01,236.0,WeatherDisplay:10.37,2013-02-03 16:33:00,
2013-02-03 11:38:00,54.5,33.6,30.06,WNW,300,7.0,7.0,45,0.00,CLR,SKC,0.01,364.0,WeatherDisplay:10.37,2013-02-03 16:38:00,
2013-02-03 11:43:00,54.7,33.8,30.05,West,273,11.5,11.5,45,0.00,CLR,SKC,0.01,497.0,WeatherDisplay:10.37,2013-02-03 16:43:00,
2013-02-03 11:48:00,54.4,33.5,30.05,West,279,11.5,11.5,45,0.00,CLR,SKC,0.01,582.0,WeatherDisplay:10.37,2013-02-03 16:48:00,
2013-02-03 11:53:00,54.7,33.8,30.05,West,277,11.5,11.5,45,0.00,CLR,SKC,0.01,464.0,WeatherDisplay:10.37,2013-02-03 16:53:00,
2013-02-03 11:58:00,55.1,33.6,30.04,WNW,284,11.5,11.5,44,0.00,CLR,SKC,0.01,98.0,WeatherDisplay:10.37,2013-02-03 16:58:00,
2013-02-03 12:03:00,55.1,33.6,30.03,WNW,288,12.7,12.7,44,0.00,CLR,SKC,0.01,232.0,WeatherDisplay:10.37,2013-02-03 17:03:00,
2013-02-03 12:08:00,55.2,33.6,30.03,WSW,241,10.0,10.0,44,0.00,CLR,SKC,0.01,350.0,WeatherDisplay:10.37,2013-02-03 17:08:00,
2013-02-03 12:13:00,55.5,33.9,30.03,NW,325,6.9,6.9,44,0.00,CLR,SKC,0.01,494.0,WeatherDisplay:10.37,2013-02-03 17:13:00,
2013-02-03 12:18:00,56.0,33.8,30.02,SW,214,11.5,11.5,43,0.00,CLR,SKC,0.01,534.0,WeatherDisplay:10.37,2013-02-03 17:18:00,
2013-02-03 12:23:00,56.4,34.7,30.02,WSW,238,6.9,6.9,44,0.00,CLR,SKC,0.01,478.0,WeatherDisplay:10.37,2013-02-03 17:23:00,
2013-02-03 12:28:00,56.8,34.5,30.01,West,260,11.5,11.5,43,0.00,CLR,SKC,0.01,703.0,WeatherDisplay:10.37,2013-02-03 17:28:00,
2013-02-03 12:33:00,56.7,34.4,30.01,West,259,10.4,10.4,43,0.00,CLR,SKC,0.01,701.0,WeatherDisplay:10.37,2013-02-03 17:33:00,
2013-02-03 12:38:00,56.7,34.4,30.01,West,262,10.4,10.4,43,0.00,CLR,SKC,0.01,703.0,WeatherDisplay:10.37,2013-02-03 17:38:00,
2013-02-03 12:43:00,57.1,34.2,30.00,WNW,291,9.2,9.2,42,0.00,CLR,SKC,0.01,705.0,WeatherDisplay:10.37,2013-02-03 17:43:00,
2013-02-03 12:48:00,57.1,34.2,30.00,WSW,245,8.1,8.1,42,0.00,CLR,SKC,0.01,703.0,WeatherDisplay:10.37,2013-02-03 17:48:00,
2013-02-03 12:53:00,57.6,34.7,30.00,WNW,301,13.8,13.8,42,0.00,CLR,SKC,0.01,705.0,WeatherDisplay:10.37,2013-02-03 17:53:00,
2013-02-03 12:58:00,58.1,34.5,29.99,WSW,258,9.2,9.2,41,0.00,CLR,SKC,0.01,701.0,WeatherDisplay:10.37,2013-02-03 17:58:00,
2013-02-03 13:03:00,58.0,34.4,29.99,SW,234,11.5,11.5,41,0.00,CLR,SKC,0.01,701.0,WeatherDisplay:10.37,2013-02-03 18:03:00,
2013-02-03 13:08:00,57.9,34.9,29.98,WNW,289,10.4,10.4,42,0.00,CLR,SKC,0.01,698.0,WeatherDisplay:10.37,2013-02-03 18:08:00,
2013-02-03 13:13:00,58.4,35.4,29.98,West,259,5.8,5.8,42,0.00,CLR,SKC,0.01,694.0,WeatherDisplay:10.37,2013-02-03 18:13:00,
2013-02-03 13:18:00,58.6,35.0,29.98,West,265,8.1,8.1,41,0.00,CLR,SKC,0.01,689.0,WeatherDisplay:10.37,2013-02-03 18:18:00,
2013-02-03 13:23:00,58.5,34.9,29.97,WSW,237,12.0,12.0,41,0.00,CLR,SKC,0.01,687.0,WeatherDisplay:10.37,2013-02-03 18:23:00,
2013-02-03 13:28:00,58.6,34.3,29.97,NW,305,11.5,11.5,40,0.00,CLR,SKC,0.01,684.0,WeatherDisplay:10.37,2013-02-03 18:28:00,
2013-02-03 13:33:00,58.7,34.4,29.97,WSW,255,6.9,6.9,40,0.00,CLR,SKC,0.01,679.0,WeatherDisplay:10.37,2013-02-03 18:33:00,
2013-02-03 13:38:00,58.9,34.0,29.96,West,260,12.7,12.7,39,0.00,CLR,SKC,0.01,675.0,WeatherDisplay:10.37,2013-02-03 18:38:00,
2013-02-03 13:43:00,59.2,35.5,29.96,West,268,4.6,4.6,41,0.00,CLR,SKC,0.01,703.0,WeatherDisplay:10.37,2013-02-03 18:43:00,
2013-02-03 13:48:00,59.7,35.3,29.96,SW,218,4.0,4.0,40,0.00,CLR,SKC,0.01,673.0,WeatherDisplay:10.37,2013-02-03 18:48:00,
2013-02-03 13:53:00,59.7,35.3,29.95,West,275,9.0,9.0,40,0.00,CLR,SKC,0.01,673.0,WeatherDisplay:10.37,2013-02-03 18:53:00,
2013-02-03 13:58:00,59.9,35.5,29.95,NNW,346,10.4,10.4,40,0.00,CLR,SKC,0.01,647.0,WeatherDisplay:10.37,2013-02-03 18:58:00,
2013-02-03 14:03:00,60.1,35.0,29.94,WNW,290,8.0,8.0,39,0.00,FEW,SKC,0.01,647.0,WeatherDisplay:10.37,2013-02-03 19:03:00,
2013-02-03 14:08:00,59.9,35.5,29.94,WSW,257,12.7,12.7,40,0.00,FEW,SKC,0.01,631.0,WeatherDisplay:10.37,2013-02-03 19:08:00,
2013-02-03 14:13:00,60.4,35.3,29.94,WSW,238,2.3,2.3,39,0.00,FEW,SKC,0.01,624.0,WeatherDisplay:10.37,2013-02-03 19:13:00,
2013-02-03 14:18:00,60.6,34.2,29.94,West,263,13.8,13.8,37,0.00,FEW,SKC,0.01,680.0,WeatherDisplay:10.37,2013-02-03 19:18:00,
2013-02-03 14:23:00,60.5,34.7,29.94,WSW,253,12.7,12.7,38,0.00,FEW,SKC,0.01,675.0,WeatherDisplay:10.37,2013-02-03 19:23:00,
2013-02-03 14:28:00,60.1,35.0,29.94,WSW,255,9.2,9.2,39,0.00,FEW,SKC,0.01,72.0,WeatherDisplay:10.37,2013-02-03 19:28:00,
2013-02-03 14:33:00,59.5,34.5,29.94,West,269,11.0,11.0,39,0.00,FEW,SKC,0.01,158.0,WeatherDisplay:10.37,2013-02-03 19:33:00,
2013-02-03 14:38:00,60.1,35.0,29.95,WNW,288,9.2,9.2,39,0.00,FEW,SKC,0.01,587.0,WeatherDisplay:10.37,2013-02-03 19:38:00,
2013-02-03 14:43:00,60.2,35.1,29.94,SW,228,5.0,5.0,39,0.00,FEW,SKC,0.01,615.0,WeatherDisplay:10.37,2013-02-03 19:43:00,
2013-02-03 14:48:00,60.4,34.7,29.94,West,277,12.7,12.7,38,0.00,FEW,SKC,0.01,559.0,WeatherDisplay:10.37,2013-02-03 19:48:00,
2013-02-03 14:53:00,60.1,34.4,29.94,West,269,16.1,16.1,38,0.00,FEW,SKC,0.01,455.0,WeatherDisplay:10.37,2013-02-03 19:53:00,
2013-02-03 14:58:00,60.0,34.3,29.94,WNW,294,13.8,13.8,38,0.00,FEW,SKC,0.01,69.0,WeatherDisplay:10.37,2013-02-03 19:58:00,
2013-02-03 15:03:00,59.5,33.9,29.93,West,274,17.3,17.3,38,0.00,FEW,SKC,0.01,56.0,WeatherDisplay:10.37,2013-02-03 20:03:00,
2013-02-03 15:08:00,59.7,34.7,29.94,West,270,13.8,13.8,39,0.00,FEW,SKC,0.01,95.0,WeatherDisplay:10.37,2013-02-03 20:08:00,
2013-02-03 15:13:00,59.9,34.9,29.93,West,259,8.0,8.0,39,0.00,FEW,SKC,0.01,49.0,WeatherDisplay:10.37,2013-02-03 20:13:00,
2013-02-03 15:18:00,60.1,34.4,29.94,West,274,18.4,18.4,38,0.00,FEW,SKC,0.01,95.0,WeatherDisplay:10.37,2013-02-03 20:18:00,
2013-02-03 15:23:00,59.9,34.2,29.94,West,276,12.7,12.7,38,0.00,FEW,SKC,0.01,53.0,WeatherDisplay:10.37,2013-02-03 20:23:00,
2013-02-03 15:28:00,60.1,35.0,29.94,West,261,8.1,8.1,39,0.00,FEW,SKC,0.01,51.0,WeatherDisplay:10.37,2013-02-03 20:28:00,
2013-02-03 15:34:00,60.1,35.0,29.93,West,265,8.1,8.1,39,0.00,FEW,SKC,0.01,40.0,WeatherDisplay:10.37,2013-02-03 20:34:00,
2013-02-03 15:39:00,60.0,34.3,29.93,West,280,11.5,11.5,38,0.00,FEW,SKC,0.01,46.0,WeatherDisplay:10.37,2013-02-03 20:39:00,
2013-02-03 15:44:00,59.9,34.9,29.93,NW,313,11.5,11.5,39,0.00,FEW,SKC,0.01,40.0,WeatherDisplay:10.37,2013-02-03 20:44:00,
2013-02-03 15:49:00,60.1,35.0,29.93,NW,306,8.1,8.1,39,0.00,FEW,SKC,0.01,42.0,WeatherDisplay:10.37,2013-02-03 20:49:00,
2013-02-03 15:54:00,60.3,34.6,29.93,WSW,242,13.8,13.8,38,0.00,FEW,SKC,0.01,42.0,WeatherDisplay:10.37,2013-02-03 20:54:00,
2013-02-03 15:59:00,60.4,34.7,29.93,WNW,303,5.0,5.0,38,0.00,FEW,SKC,0.01,33.0,WeatherDisplay:10.37,2013-02-03 20:59:00,
2013-02-03 16:04:00,60.5,34.1,29.93,West,259,15.0,15.0,37,0.00,FEW,SKC,0.01,37.0,WeatherDisplay:10.37,2013-02-03 21:04:00,
2013-02-03 16:09:00,60.5,34.7,29.93,WSW,252,4.6,4.6,38,0.00,FEW,SKC,0.01,47.0,WeatherDisplay:10.37,2013-02-03 21:09:00,
2013-02-03 16:14:00,60.6,34.2,29.93,West,274,11.5,11.5,37,0.00,FEW,SKC,0.01,51.0,WeatherDisplay:10.37,2013-02-03 21:14:00,
2013-02-03 16:19:00,60.7,34.3,29.93,WNW,300,5.8,5.8,37,0.00,FEW,SKC,0.01,32.0,WeatherDisplay:10.37,2013-02-03 21:19:00,
2013-02-03 16:24:00,60.8,34.3,29.93,WNW,288,10.4,10.4,37,0.00,FEW,SKC,0.01,30.0,WeatherDisplay:10.37,2013-02-03 21:24:00,
2013-02-03 16:29:00,60.8,33.7,29.93,West,267,10.4,10.4,36,0.00,FEW,SKC,0.01,28.0,WeatherDisplay:10.37,2013-02-03 21:29:00,
2013-02-03 16:34:00,60.8,33.7,29.93,West,274,10.4,10.4,36,0.00,FEW,SKC,0.01,40.0,WeatherDisplay:10.37,2013-02-03 21:34:00,
2013-02-03 16:39:00,60.7,33.6,29.93,WNW,286,16.1,16.1,36,0.00,FEW,SKC,0.01,30.0,WeatherDisplay:10.37,2013-02-03 21:39:00,
2013-02-03 16:44:00,60.6,33.5,29.93,West,273,11.5,11.5,36,0.00,FEW,SKC,0.01,28.0,WeatherDisplay:10.37,2013-02-03 21:44:00,
2013-02-03 16:49:00,60.4,33.3,29.93,West,273,8.1,8.1,36,0.00,FEW,SKC,0.01,28.0,WeatherDisplay:10.37,2013-02-03 21:49:00,
2013-02-03 16:54:00,60.4,34.0,29.93,SSW,198,8.1,8.1,37,0.00,FEW,SKC,0.01,28.0,WeatherDisplay:10.37,2013-02-03 21:54:00,
2013-02-03 16:59:00,60.2,33.8,29.93,West,266,12.7,12.7,37,0.00,FEW,SKC,0.01,26.0,WeatherDisplay:10.37,2013-02-03 21:59:00,
2013-02-03 17:04:00,60.2,33.1,29.93,SW,227,6.9,6.9,36,0.00,FEW,SKC,0.01,26.0,WeatherDisplay:10.37,2013-02-03 22:04:00,
2013-02-03 17:09:00,60.1,34.4,29.93,West,269,4.0,4.0,38,0.00,FEW,SKC,0.01,26.0,WeatherDisplay:10.37,2013-02-03 22:09:00,
2013-02-03 17:14:00,60.0,33.6,29.93,West,274,11.5,11.5,37,0.00,FEW,SKC,0.01,21.0,WeatherDisplay:10.37,2013-02-03 22:14:00,
2013-02-03 17:19:00,59.9,34.2,29.93,West,265,4.6,4.6,38,0.00,FEW,SKC,0.01,18.0,WeatherDisplay:10.37,2013-02-03 22:19:00,
2013-02-03 17:24:00,59.7,34.0,29.93,WSW,254,6.9,6.9,38,0.00,FEW,SKC,0.01,16.0,WeatherDisplay:10.37,2013-02-03 22:24:00,
2013-02-03 17:29:00,59.5,33.9,29.94,West,268,10.4,10.4,38,0.00,FEW,SKC,0.01,14.0,WeatherDisplay:10.37,2013-02-03 22:29:00,
2013-02-03 17:34:00,59.2,34.2,29.93,West,265,2.3,2.3,39,0.00,FEW,SKC,0.01,12.0,WeatherDisplay:10.37,2013-02-03 22:34:00,
2013-02-03 17:39:00,59.0,34.1,29.94,NW,309,4.6,4.6,39,0.00,FEW,SKC,0.01,11.0,WeatherDisplay:10.37,2013-02-03 22:39:00,
2013-02-03 17:44:00,58.6,34.3,29.94,West,259,2.3,2.3,40,0.00,FEW,SKC,0.01,9.0,WeatherDisplay:10.37,2013-02-03 22:44:00,
2013-02-03 17:49:00,58.3,34.7,29.94,WNW,288,2.3,2.3,41,0.00,FEW,SKC,0.01,7.0,WeatherDisplay:10.37,2013-02-03 22:49:00,
2013-02-03 17:54:00,57.9,34.3,29.94,WNW,288,1.2,1.2,41,0.00,FEW,SKC,0.01,0.0,WeatherDisplay:10.37,2013-02-03 22:54:00,
2013-02-03 17:59:00,57.4,34.5,29.94,West,278,6.9,6.9,42,0.00,FEW,SKC,0.01,0.0,WeatherDisplay:10.37,2013-02-03 22:59:00,
2013-02-03 18:04:00,57.0,34.7,29.94,West,278,1.0,1.0,43,0.00,CLR,SKC,0.01,0.0,WeatherDisplay:10.37,2013-02-03 23:04:00,
2013-02-03 18:09:00,56.7,35.0,29.95,West,278,1.2,1.2,44,0.00,CLR,SKC,0.01,0.0,WeatherDisplay:10.37,2013-02-03 23:09:00,
2013-02-03 18:14:00,56.3,35.2,29.95,West,278,1.2,1.2,45,0.00,CLR,SKC,0.01,0.0,WeatherDisplay:10.37,2013-02-03 23:14:00,
2013-02-03 18:19:00,55.9,34.8,29.95,West,278,0.0,0.0,45,0.00,CLR,SKC,0.01,0.0,WeatherDisplay:10.37,2013-02-03 23:19:00,
2013-02-03 18:24:00,55.6,35.1,29.95,West,278,0.0,0.0,46,0.00,CLR,SKC,0.01,0.0,WeatherDisplay:10.37,2013-02-03 23:24:00,
2013-02-03 18:29:00,55.6,35.1,29.95,WNW,299,0.0,0.0,46,0.00,CLR,SKC,0.01,0.0,WeatherDisplay:10.37,2013-02-03 23:29:00,
2013-02-03 18:34:00,55.4,34.9,29.95,WNW,299,0.0,0.0,46,0.00,CLR,SKC,0.01,0.0,WeatherDisplay:10.37,2013-02-03 23:34:00,
2013-02-03 18:39:00,55.1,34.7,29.95,WNW,299,0.0,0.0,46,0.00,CLR,SKC,0.01,0.0,WeatherDisplay:10.37,2013-02-03 23:39:00,
2013-02-03 18:44:00,54.6,35.3,29.96,WNW,299,0.0,0.0,48,0.00,CLR,SKC,0.01,0.0,WeatherDisplay:10.37,2013-02-03 23:44:00,
2013-02-03 18:49:00,53.9,35.7,29.96,WNW,299,0.0,0.0,50,0.00,CLR,SKC,0.01,0.0,WeatherDisplay:10.37,2013-02-03 23:49:00,
2013-02-03 18:54:00,53.4,35.2,29.96,WNW,299,0.0,0.0,50,0.00,CLR,SKC,0.01,0.0,WeatherDisplay:10.37,2013-02-03 23:54:00,
2013-02-03 18:59:00,53.0,35.3,29.96,WNW,299,0.0,0.0,51,0.00,CLR,SKC,0.01,0.0,WeatherDisplay:10.37,2013-02-03 23:59:00,
2013-02-03 19:04:00,52.6,35.5,29.96,WNW,298,0.0,0.0,52,0.00,CLR,SKC,0.01,0.0,WeatherDisplay:10.37,2013-02-04 00:04:00,
2013-02-03 19:09:00,52.5,35.4,29.97,WNW,299,0.0,0.0,52,0.00,CLR,SKC,0.01,0.0,WeatherDisplay:10.37,2013-02-04 00:09:00,
2013-02-03 19:14:00,52.3,35.2,29.97,WNW,299,1.2,0.0,52,0.00,CLR,SKC,0.01,0.0,WeatherDisplay:10.37,2013-02-04 00:14:00,
2013-02-03 19:19:00,52.4,35.3,29.97,WNW,299,0.0,0.0,52,0.00,CLR,SKC,0.01,0.0,WeatherDisplay:10.37,2013-02-04 00:19:00,
2013-02-03 19:24:00,52.4,35.3,29.97,WNW,299,1.2,0.0,52,0.00,CLR,SKC,0.01,0.0,WeatherDisplay:10.37,2013-02-04 00:24:00,
2013-02-03 19:29:00,52.1,35.5,29.97,WNW,299,0.0,0.0,53,0.00,CLR,SKC,0.01,0.0,WeatherDisplay:10.37,2013-02-04 00:29:00,
2013-02-03 19:34:00,51.8,35.7,29.98,WNW,298,0.0,0.0,54,0.00,CLR,SKC,0.01,0.0,WeatherDisplay:10.37,2013-02-04 00:34:00,
2013-02-03 19:39:00,51.7,35.6,29.98,WNW,298,0.0,0.0,54,0.00,CLR,SKC,0.01,0.0,WeatherDisplay:10.37,2013-02-04 00:39:00,
2013-02-03 19:44:00,51.5,35.9,29.98,WNW,299,0.0,0.0,55,0.00,CLR,SKC,0.01,0.0,WeatherDisplay:10.37,2013-02-04 00:44:00,
2013-02-03 19:49:00,51.1,35.9,29.98,WNW,299,0.0,0.0,56,0.00,CLR,SKC,0.01,0.0,WeatherDisplay:10.37,2013-02-04 00:49:00,
2013-02-03 19:54:00,50.8,35.7,29.98,WNW,299,0.0,0.0,56,0.00,CLR,SKC,0.01,0.0,WeatherDisplay:10.37,2013-02-04 00:54:00,
2013-02-03 19:59:00,50.8,35.7,29.99,WNW,298,1.2,0.0,56,0.00,CLR,SKC,0.01,0.0,WeatherDisplay:10.37,2013-02-04 00:59:00,
2013-02-03 20:04:00,51.0,35.8,29.99,WNW,299,0.0,0.0,56,0.00,CLR,SKC,0.01,0.0,WeatherDisplay:10.37,2013-02-04 01:04:00,
2013-02-03 20:09:00,50.9,35.3,29.99,WNW,299,0.0,0.0,55,0.00,CLR,SKC,0.01,0.0,WeatherDisplay:10.37,2013-02-04 01:09:00,
2013-02-03 20:14:00,50.8,35.2,30.00,WNW,299,0.0,0.0,55,0.00,CLR,SKC,0.01,0.0,WeatherDisplay:10.37,2013-02-04 01:14:00,
2013-02-03 20:19:00,50.8,35.2,30.00,WNW,299,0.0,0.0,55,0.00,CLR,SKC,0.01,0.0,WeatherDisplay:10.37,2013-02-04 01:19:00,
2013-02-03 20:24:00,50.7,34.6,30.00,WNW,298,0.0,0.0,54,0.00,CLR,SKC,0.01,0.0,WeatherDisplay:10.37,2013-02-04 01:24:00,
2013-02-03 20:29:00,50.2,35.1,30.00,WNW,299,0.0,0.0,56,0.00,CLR,SKC,0.01,0.0,WeatherDisplay:10.37,2013-02-04 01:29:00,
2013-02-03 20:34:00,50.1,35.0,29.99,WNW,299,0.0,0.0,56,0.00,CLR,SKC,0.01,0.0,WeatherDisplay:10.37,2013-02-04 01:34:00,
2013-02-03 20:39:00,49.6,35.4,30.00,WNW,298,0.0,0.0,58,0.00,CLR,SKC,0.01,0.0,WeatherDisplay:10.37,2013-02-04 01:39:00,
2013-02-03 20:45:00,49.2,35.0,29.99,WNW,298,0.0,0.0,58,0.00,CLR,SKC,0.01,0.0,WeatherDisplay:10.37,2013-02-04 01:45:00,
2013-02-03 20:50:00,48.9,35.2,30.00,WNW,298,0.0,0.0,59,0.00,CLR,SKC,0.01,0.0,WeatherDisplay:10.37,2013-02-04 01:50:00,
2013-02-03 20:55:00,48.8,35.5,30.00,WNW,298,0.0,0.0,60,0.00,CLR,SKC,0.01,0.0,WeatherDisplay:10.37,2013-02-04 01:55:00,
2013-02-03 21:00:00,48.4,35.6,30.00,WNW,298,0.0,0.0,61,0.00,CLR,SKC,0.01,0.0,WeatherDisplay:10.37,2013-02-04 02:00:00,
2013-02-03 21:05:00,48.3,35.4,30.00,WNW,298,0.0,0.0,61,0.00,CLR,SKC,0.01,0.0,WeatherDisplay:10.37,2013-02-04 02:05:00,
2013-02-03 21:10:00,47.7,35.3,30.00,WNW,299,0.0,0.0,62,0.00,CLR,SKC,0.01,0.0,WeatherDisplay:10.37,2013-02-04 02:10:00,
2013-02-03 21:15:00,47.6,35.2,30.00,WNW,299,0.0,1.0,62,0.00,CLR,SKC,0.01,0.0,WeatherDisplay:10.37,2013-02-04 02:15:00,
2013-02-03 21:19:00,47.6,35.2,30.01,WNW,298,0.0,0.0,62,0.00,CLR,SKC,0.01,0.0,WeatherDisplay:10.37,2013-02-04 02:19:00,
2013-02-03 21:25:00,47.7,35.7,30.01,WNW,299,0.0,0.0,63,0.00,CLR,SKC,0.01,0.0,WeatherDisplay:10.37,2013-02-04 02:25:00,
2013-02-03 21:30:00,47.4,35.8,30.02,WNW,298,0.0,0.0,64,0.00,CLR,SKC,0.01,0.0,WeatherDisplay:10.37,2013-02-04 02:30:00,
2013-02-03 21:35:00,47.0,35.4,30.02,WNW,299,1.2,0.0,64,0.00,CLR,SKC,0.01,0.0,WeatherDisplay:10.37,2013-02-04 02:35:00,
2013-02-03 21:40:00,46.8,35.3,30.02,WNW,298,0.0,4.0,64,0.00,CLR,SKC,0.01,0.0,WeatherDisplay:10.37,2013-02-04 02:40:00,
2013-02-03 21:45:00,47.1,35.5,30.02,WNW,298,1.2,1.2,64,0.00,CLR,SKC,0.01,0.0,WeatherDisplay:10.37,2013-02-04 02:45:00,
2013-02-03 21:50:00,47.1,35.2,30.02,WNW,298,0.0,2.0,63,0.00,CLR,SKC,0.01,0.0,WeatherDisplay:10.37,2013-02-04 02:50:00,
2013-02-03 21:55:00,47.8,35.0,30.03,WNW,298,0.0,3.0,61,0.00,CLR,SKC,0.01,0.0,WeatherDisplay:10.37,2013-02-04 02:55:00,
2013-02-03 22:00:00,48.0,35.2,30.03,WNW,298,0.0,2.0,61,0.00,CLR,SKC,0.01,0.0,WeatherDisplay:10.37,2013-02-04 03:00:00,
2013-02-03 22:05:00,48.1,34.9,30.03,WNW,298,3.5,3.5,60,0.00,CLR,SKC,0.01,0.0,WeatherDisplay:10.37,2013-02-04 03:05:00,
2013-02-03 22:10:00,48.2,35.0,30.03,WNW,298,1.2,0.0,60,0.00,CLR,SKC,0.01,0.0,WeatherDisplay:10.37,2013-02-04 03:10:00,
2013-02-03 22:15:00,47.9,34.6,30.03,WNW,298,0.0,0.0,60,0.00,CLR,SKC,0.01,0.0,WeatherDisplay:10.37,2013-02-04 03:15:00,
2013-02-03 22:20:00,47.4,34.6,30.03,WNW,298,0.0,0.0,61,0.00,CLR,SKC,0.01,0.0,WeatherDisplay:10.37,2013-02-04 03:20:00,
2013-02-03 22:25:00,46.9,34.6,30.03,WNW,298,0.0,0.0,62,0.00,CLR,SKC,0.01,0.0,WeatherDisplay:10.37,2013-02-04 03:25:00,
2013-02-03 22:30:00,46.5,34.5,30.03,WNW,298,0.0,0.0,63,0.00,CLR,SKC,0.01,0.0,WeatherDisplay:10.37,2013-02-04 03:30:00,
2013-02-03 22:35:00,45.8,34.7,30.03,WNW,298,0.0,0.0,65,0.00,CLR,SKC,0.01,0.0,WeatherDisplay:10.37,2013-02-04 03:35:00,
2013-02-03 22:40:00,45.3,34.3,30.03,WNW,298,0.0,1.0,65,0.00,CLR,SKC,0.01,0.0,WeatherDisplay:10.37,2013-02-04 03:40:00,
2013-02-03 22:45:00,45.1,34.4,30.03,WNW,298,1.2,0.0,66,0.00,CLR,SKC,0.01,0.0,WeatherDisplay:10.37,2013-02-04 03:45:00,
2013-02-03 22:50:00,44.9,34.6,30.03,WNW,298,0.0,0.0,67,0.00,CLR,SKC,0.01,0.0,WeatherDisplay:10.37,2013-02-04 03:50:00,
2013-02-03 22:55:00,44.8,34.9,30.04,WNW,298,0.0,0.0,68,0.00,CLR,SKC,0.01,0.0,WeatherDisplay:10.37,2013-02-04 03:55:00,
2013-02-03 23:00:00,44.5,34.6,30.04,WNW,298,0.0,0.0,68,0.00,CLR,SKC,0.01,0.0,WeatherDisplay:10.37,2013-02-04 04:00:00,
2013-02-03 23:05:00,44.3,34.8,30.04,WNW,298,0.0,0.0,69,0.00,CLR,SKC,0.01,0.0,WeatherDisplay:10.37,2013-02-04 04:05:00,
2013-02-03 23:09:00,44.0,34.8,30.04,WNW,298,0.0,0.0,70,0.00,CLR,SKC,0.01,0.0,WeatherDisplay:10.37,2013-02-04 04:09:00,
2013-02-03 23:15:00,43.7,34.6,30.04,WNW,298,0.0,0.0,70,0.00,CLR,SKC,0.01,0.0,WeatherDisplay:10.37,2013-02-04 04:15:00,
2013-02-03 23:20:00,43.4,34.6,30.04,WNW,298,0.0,0.0,71,0.00,CLR,SKC,0.01,0.0,WeatherDisplay:10.37,2013-02-04 04:20:00,
2013-02-03 23:25:00,43.2,34.8,30.04,WNW,298,0.0,0.0,72,0.00,CLR,SKC,0.01,0.0,WeatherDisplay:10.37,2013-02-04 04:25:00,
2013-02-03 23:30:00,42.8,34.7,30.04,WNW,298,0.0,0.0,73,0.00,CLR,SKC,0.01,0.0,WeatherDisplay:10.37,2013-02-04 04:30:00,
2013-02-03 23:35:00,42.4,34.4,30.04,WNW,298,0.0,0.0,73,0.00,CLR,SKC,0.01,0.0,WeatherDisplay:10.37,2013-02-04 04:35:00,
2013-02-03 23:40:00,42.2,34.5,30.04,WNW,298,0.0,0.0,74,0.00,CLR,SKC,0.01,0.0,WeatherDisplay:10.37,2013-02-04 04:40:00,
2013-02-03 23:45:00,42.2,34.5,30.04,WNW,298,0.0,0.0,74,0.00,CLR,SKC,0.01,0.0,WeatherDisplay:10.37,2013-02-04 04:45:00,
2013-02-03 23:50:00,42.1,35.1,30.04,WNW,298,0.0,0.0,76,0.00,CLR,SKC,0.01,0.0,WeatherDisplay:10.37,2013-02-04 04:50:00,
2013-02-03 23:55:00,42.0,35.0,30.04,WNW,298,0.0,0.0,76,0.00,CLR,SKC,0.01,0.0,WeatherDisplay:10.37,2013-02-04 04:55:00,